Tracking 30696 objects as of 15-Jun-2025
HD Live streaming from Space Station
objects crossing your sky now

ATLAS 5 CENTAUR DEB

Track ATLAS 5 CENTAUR DEB now!


NORAD ID: 44667
Int'l Code: 2018-079AD
Perigee: 8,489.1 km
Apogee: 33,683.3 km
Inclination: 13.1 °
Period: 754.6 minutes
Semi major axis: 27457 km
RCS: Unknown
Launch date: October 17, 2018
Source: United States (US)
Launch site: AIR FORCE EASTERN TEST RANGE (AFETR)

Note: This is SATELLITE DEBRIS
Your satellite tracking list
Your tracking list is empty




NASA's NSSDC Master Catalog

Two Line Element Set (TLE):
1 44667U 18079AD  25165.72531894 -.00000079  00000-0  00000+0 0  9996
2 44667  13.1161  48.2705 4587906 293.3970  25.4638  1.90817495 42053
Source of the keplerian elements: AFSPC